Time,TemperatureF,DewpointF,PressureIn,WindDirection,WindDirectionDegrees,WindSpeedMPH,WindSpeedGustMPH,Humidity,HourlyPrecipIn,Conditions,Clouds,dailyrainin,SoftwareType,DateUTC
2013-09-15 00:02:00,71.3,47.0,29.57,ESE,115,0.0,0.0,42,0.00,,,0.00,weatherlink.com 1.10,2013-09-15 07:02:00,
2013-09-15 00:17:00,71.4,46.0,29.57,ESE,117,0.0,0.0,41,0.00,,,0.00,weatherlink.com 1.10,2013-09-15 07:17:00,
2013-09-15 00:32:00,71.0,46.0,29.57,SE,124,0.0,0.0,41,0.00,,,0.00,weatherlink.com 1.10,2013-09-15 07:32:00,
2013-09-15 00:47:00,71.3,46.0,29.57,ESE,121,0.0,0.0,41,0.00,,,0.00,weatherlink.com 1.10,2013-09-15 07:47:00,
2013-09-15 01:02:00,70.4,46.0,29.56,ESE,117,0.0,0.0,42,0.00,,,0.00,weatherlink.com 1.10,2013-09-15 08:02:00,
2013-09-15 01:17:00,71.6,47.0,29.56,East,86,0.0,0.0,41,0.00,,,0.00,weatherlink.com 1.10,2013-09-15 08:17:00,
2013-09-15 01:32:00,71.0,47.0,29.56,East,86,0.0,0.0,42,0.00,,,0.00,weatherlink.com 1.10,2013-09-15 08:32:00,
2013-09-15 01:47:00,70.3,47.0,29.56,SE,141,0.0,0.0,43,0.00,,,0.00,weatherlink.com 1.10,2013-09-15 08:47:00,
2013-09-15 02:02:00,69.7,47.0,29.55,SE,125,0.0,0.0,44,0.00,,,0.00,weatherlink.com 1.10,2013-09-15 09:02:00,
2013-09-15 02:17:00,68.8,46.0,29.55,SE,125,0.0,0.0,45,0.00,,,0.00,weatherlink.com 1.10,2013-09-15 09:17:00,
2013-09-15 02:32:00,68.3,47.0,29.55,ESE,121,0.0,0.0,46,0.00,,,0.00,weatherlink.com 1.10,2013-09-15 09:32:00,
2013-09-15 02:47:00,68.4,47.0,29.55,ESE,114,0.0,0.0,46,0.00,,,0.00,weatherlink.com 1.10,2013-09-15 09:47:00,
2013-09-15 03:02:00,68.4,47.0,29.55,ESE,122,0.0,0.0,47,0.00,,,0.00,weatherlink.com 1.10,2013-09-15 10:02:00,
2013-09-15 03:17:00,69.0,47.0,29.54,East,91,0.0,0.0,46,0.00,,,0.00,weatherlink.com 1.10,2013-09-15 10:17:00,
2013-09-15 03:32:00,68.6,47.0,29.54,East,91,0.0,0.0,47,0.00,,,0.00,weatherlink.com 1.10,2013-09-15 10:32:00,
2013-09-15 03:47:00,67.5,48.0,29.54,ESE,120,0.0,0.0,49,0.00,,,0.00,weatherlink.com 1.10,2013-09-15 10:47:00,
2013-09-15 04:02:00,68.3,48.0,29.54,East,91,0.0,0.0,49,0.00,,,0.00,weatherlink.com 1.10,2013-09-15 11:02:00,
2013-09-15 04:17:00,67.7,49.0,29.54,ESE,118,0.0,0.0,51,0.00,,,0.00,weatherlink.com 1.10,2013-09-15 11:17:00,
2013-09-15 04:32:00,68.1,49.0,29.53,East,98,0.0,0.0,51,0.00,,,0.00,weatherlink.com 1.10,2013-09-15 11:32:00,
2013-09-15 04:47:00,67.4,50.0,29.53,ESE,115,0.0,0.0,53,0.00,,,0.00,weatherlink.com 1.10,2013-09-15 11:47:00,
2013-09-15 05:02:00,67.9,50.0,29.52,ESE,111,0.0,0.0,53,0.00,,,0.00,weatherlink.com 1.10,2013-09-15 12:02:00,
2013-09-15 05:17:00,67.7,49.0,29.52,ESE,120,0.0,0.0,52,0.00,,,0.00,weatherlink.com 1.10,2013-09-15 12:17:00,
2013-09-15 05:32:00,67.3,49.0,29.52,SE,125,0.0,0.0,53,0.00,,,0.00,weatherlink.com 1.10,2013-09-15 12:32:00,
2013-09-15 05:48:00,67.7,49.0,29.52,ESE,122,0.0,0.0,52,0.00,,,0.00,weatherlink.com 1.10,2013-09-15 12:48:00,
2013-09-15 06:03:00,68.2,49.0,29.52,ESE,104,0.0,0.0,51,0.00,,,0.00,weatherlink.com 1.10,2013-09-15 13:03:00,
2013-09-15 06:18:00,67.4,50.0,29.52,ESE,114,0.0,0.0,53,0.00,,,0.00,weatherlink.com 1.10,2013-09-15 13:18:00,
2013-09-15 06:33:00,67.0,49.0,29.51,SE,125,0.0,0.0,53,0.00,,,0.00,weatherlink.com 1.10,2013-09-15 13:33:00,
2013-09-15 06:48:00,67.1,49.0,29.51,SE,125,0.0,0.0,53,0.00,,,0.00,weatherlink.com 1.10,2013-09-15 13:48:00,
2013-09-15 07:03:00,66.4,49.0,29.52,SE,127,0.0,0.0,53,0.00,,,0.00,weatherlink.com 1.10,2013-09-15 14:03:00,
2013-09-15 07:18:00,66.7,49.0,29.52,SE,124,0.0,0.0,53,0.00,,,0.00,weatherlink.com 1.10,2013-09-15 14:18:00,
2013-09-15 07:33:00,66.6,49.0,29.52,East,99,0.0,0.0,53,0.00,,,0.00,weatherlink.com 1.10,2013-09-15 14:33:00,
2013-09-15 07:48:00,66.8,49.0,29.51,SE,124,0.0,0.0,53,0.00,,,0.00,weatherlink.com 1.10,2013-09-15 14:48:00,
2013-09-15 08:03:00,66.9,49.0,29.52,SE,124,0.0,0.0,53,0.00,,,0.00,weatherlink.com 1.10,2013-09-15 15:03:00,
2013-09-15 08:18:00,68.0,50.0,29.51,East,88,0.0,0.0,52,0.00,,,0.00,weatherlink.com 1.10,2013-09-15 15:18:00,
2013-09-15 08:33:00,70.6,49.0,29.51,SSE,167,0.0,6.0,47,0.00,,,0.00,weatherlink.com 1.10,2013-09-15 15:33:00,
2013-09-15 08:48:00,73.3,50.0,29.51,South,169,0.0,10.0,44,0.00,,,0.00,weatherlink.com 1.10,2013-09-15 15:48:00,
2013-09-15 09:03:00,73.3,50.0,29.51,South,181,3.0,11.0,44,0.00,,,0.00,weatherlink.com 1.10,2013-09-15 16:03:00,
2013-09-15 09:18:00,73.3,50.0,29.51,South,173,1.0,14.0,44,0.00,,,0.00,weatherlink.com 1.10,2013-09-15 16:18:00,
2013-09-15 09:33:00,72.1,50.0,29.51,South,172,4.0,8.0,45,0.00,,,0.00,weatherlink.com 1.10,2013-09-15 16:33:00,
2013-09-15 09:48:00,71.9,50.0,29.51,SW,226,6.0,9.0,46,0.00,,,0.00,weatherlink.com 1.10,2013-09-15 16:48:00,
2013-09-15 10:03:00,72.7,50.0,29.51,SE,124,4.0,10.0,45,0.00,,,0.00,weatherlink.com 1.10,2013-09-15 17:03:00,
2013-09-15 10:18:00,74.2,50.0,29.50,ENE,74,3.0,19.0,42,0.00,,,0.00,weatherlink.com 1.10,2013-09-15 17:18:00,
2013-09-15 10:33:00,74.9,50.0,29.50,South,170,8.0,16.0,41,0.00,,,0.00,weatherlink.com 1.10,2013-09-15 17:33:00,
2013-09-15 10:48:00,76.6,48.0,29.50,SSW,205,0.0,14.0,37,0.00,,,0.00,weatherlink.com 1.10,2013-09-15 17:48:00,
2013-09-15 11:04:00,76.7,47.0,29.50,South,180,10.0,15.0,35,0.00,,,0.00,weatherlink.com 1.10,2013-09-15 18:04:00,
2013-09-15 11:18:00,76.9,46.0,29.50,SSE,155,1.0,15.0,34,0.00,,,0.00,weatherlink.com 1.10,2013-09-15 18:18:00,
2013-09-15 11:33:00,77.9,47.0,29.50,South,184,5.0,14.0,34,0.00,,,0.00,weatherlink.com 1.10,2013-09-15 18:33:00,
2013-09-15 11:48:00,79.0,47.0,29.50,SSW,207,5.0,12.0,33,0.00,,,0.00,weatherlink.com 1.10,2013-09-15 18:48:00,
2013-09-15 12:03:00,80.4,48.0,29.49,SSW,198,3.0,10.0,32,0.00,,,0.00,weatherlink.com 1.10,2013-09-15 19:03:00,
2013-09-15 12:18:00,81.1,47.0,29.48,SE,146,6.0,10.0,30,0.00,,,0.00,weatherlink.com 1.10,2013-09-15 19:18:00,
2013-09-15 12:33:00,82.7,45.0,29.48,SSW,195,1.0,9.0,27,0.00,,,0.00,weatherlink.com 1.10,2013-09-15 19:33:00,
2013-09-15 12:48:00,82.6,45.0,29.47,SSW,211,5.0,11.0,27,0.00,,,0.00,weatherlink.com 1.10,2013-09-15 19:48:00,
2013-09-15 13:03:00,83.0,45.0,29.47,North,1,1.0,16.0,26,0.00,,,0.00,weatherlink.com 1.10,2013-09-15 20:03:00,
2013-09-15 13:18:00,84.2,45.0,29.46,SE,131,5.0,14.0,25,0.00,,,0.00,weatherlink.com 1.10,2013-09-15 20:18:00,
2013-09-15 13:34:00,85.1,41.0,29.46,SSW,207,7.0,14.0,21,0.00,,,0.00,weatherlink.com 1.10,2013-09-15 20:34:00,
2013-09-15 13:49:00,85.8,39.0,29.46,SSE,158,11.0,18.0,19,0.00,,,0.00,weatherlink.com 1.10,2013-09-15 20:49:00,
2013-09-15 14:04:00,85.6,37.0,29.45,WNW,292,3.0,25.0,18,0.00,,,0.00,weatherlink.com 1.10,2013-09-15 21:04:00,
2013-09-15 14:19:00,84.8,40.0,29.46,SW,215,6.0,14.0,20,0.00,,,0.00,weatherlink.com 1.10,2013-09-15 21:19:00,
2013-09-15 14:34:00,86.1,36.0,29.45,SSW,203,4.0,8.0,17,0.00,,,0.00,weatherlink.com 1.10,2013-09-15 21:34:00,
2013-09-15 14:49:00,85.9,36.0,29.45,SSE,160,6.0,13.0,17,0.00,,,0.00,weatherlink.com 1.10,2013-09-15 21:49:00,
2013-09-15 15:04:00,84.7,38.0,29.44,SW,217,7.0,11.0,19,0.00,,,0.00,weatherlink.com 1.10,2013-09-15 22:04:00,
2013-09-15 15:19:00,84.9,37.0,29.43,WSW,246,5.0,8.0,18,0.00,,,0.00,weatherlink.com 1.10,2013-09-15 22:19:00,
2013-09-15 15:34:00,85.3,33.0,29.43,SW,223,7.0,12.0,15,0.00,,,0.00,weatherlink.com 1.10,2013-09-15 22:34:00,
2013-09-15 15:49:00,84.9,32.0,29.43,WNW,298,6.0,8.0,15,0.00,,,0.00,weatherlink.com 1.10,2013-09-15 22:49:00,
2013-09-15 16:04:00,85.6,31.0,29.42,SSE,155,11.0,13.0,14,0.00,,,0.00,weatherlink.com 1.10,2013-09-15 23:04:00,
2013-09-15 16:19:00,84.2,46.0,29.42,NW,307,12.0,18.0,26,0.00,,,0.00,weatherlink.com 1.10,2013-09-15 23:19:00,
2013-09-15 16:35:00,82.9,48.0,29.41,NW,322,4.0,10.0,30,0.00,,,0.00,weatherlink.com 1.10,2013-09-15 23:35:00,
2013-09-15 16:49:00,82.7,48.0,29.42,NNW,332,6.0,19.0,30,0.00,,,0.00,weatherlink.com 1.10,2013-09-15 23:49:00,
2013-09-15 17:04:00,82.2,49.0,29.43,NNE,13,7.0,16.0,31,0.00,,,0.00,weatherlink.com 1.10,2013-09-16 00:04:00,
2013-09-15 17:19:00,77.8,47.0,29.45,NNW,333,9.0,19.0,34,0.00,,,0.00,weatherlink.com 1.10,2013-09-16 00:19:00,
2013-09-15 17:34:00,76.4,44.0,29.46,NNW,333,4.0,12.0,32,0.00,,,0.00,weatherlink.com 1.10,2013-09-16 00:34:00,
2013-09-15 17:49:00,75.3,45.0,29.47,NNW,335,5.0,10.0,34,0.00,,,0.00,weatherlink.com 1.10,2013-09-16 00:49:00,
2013-09-15 18:04:00,74.0,45.0,29.47,North,8,7.0,11.0,36,0.00,,,0.00,weatherlink.com 1.10,2013-09-16 01:04:00,
2013-09-15 18:19:00,72.7,46.0,29.48,NW,306,3.0,7.0,38,0.00,,,0.00,weatherlink.com 1.10,2013-09-16 01:19:00,
2013-09-15 18:34:00,71.2,47.0,29.48,NNW,328,4.0,10.0,42,0.00,,,0.00,weatherlink.com 1.10,2013-09-16 01:34:00,
2013-09-15 18:49:00,68.6,49.0,29.49,NNW,327,3.0,10.0,50,0.00,,,0.00,weatherlink.com 1.10,2013-09-16 01:49:00,
2013-09-15 19:04:00,66.9,49.0,29.50,NW,325,3.0,10.0,53,0.00,,,0.00,weatherlink.com 1.10,2013-09-16 02:04:00,
2013-09-15 19:19:00,64.8,49.0,29.50,NW,319,5.0,9.0,57,0.00,,,0.00,weatherlink.com 1.10,2013-09-16 02:19:00,
2013-09-15 19:34:00,63.8,49.0,29.51,NNW,342,5.0,8.0,59,0.00,,,0.00,weatherlink.com 1.10,2013-09-16 02:34:00,
2013-09-15 19:49:00,62.7,50.0,29.52,NNW,336,2.0,4.0,63,0.00,,,0.00,weatherlink.com 1.10,2013-09-16 02:49:00,
2013-09-15 20:04:00,61.5,49.0,29.53,NW,325,3.0,6.0,64,0.00,,,0.00,weatherlink.com 1.10,2013-09-16 03:04:00,
2013-09-15 20:19:00,60.6,48.0,29.54,NNW,330,0.0,6.0,64,0.00,,,0.00,weatherlink.com 1.10,2013-09-16 03:19:00,
2013-09-15 20:34:00,59.5,48.0,29.55,North,354,0.0,4.0,65,0.00,,,0.00,weatherlink.com 1.10,2013-09-16 03:34:00,
2013-09-15 20:49:00,58.8,47.0,29.56,NNW,338,2.0,7.0,66,0.00,,,0.00,weatherlink.com 1.10,2013-09-16 03:49:00,
2013-09-15 21:04:00,57.6,46.0,29.57,ESE,114,4.0,4.0,66,0.00,,,0.00,weatherlink.com 1.10,2013-09-16 04:04:00,
2013-09-15 21:20:00,56.5,46.0,29.58,NNE,19,1.0,7.0,69,0.00,,,0.00,weatherlink.com 1.10,2013-09-16 04:20:00,
2013-09-15 21:35:00,55.6,46.0,29.58,NW,326,0.0,4.0,71,0.00,,,0.00,weatherlink.com 1.10,2013-09-16 04:35:00,
2013-09-15 21:50:00,55.1,46.0,29.59,NNE,27,0.0,5.0,71,0.00,,,0.00,weatherlink.com 1.10,2013-09-16 04:50:00,
2013-09-15 22:05:00,54.6,46.0,29.60,NNE,20,1.0,8.0,72,0.00,,,0.00,weatherlink.com 1.10,2013-09-16 05:05:00,
2013-09-15 22:20:00,54.1,46.0,29.60,North,355,3.0,6.0,73,0.00,,,0.00,weatherlink.com 1.10,2013-09-16 05:20:00,
2013-09-15 22:35:00,53.6,45.0,29.61,NNW,332,0.0,4.0,73,0.00,,,0.00,weatherlink.com 1.10,2013-09-16 05:35:00,
2013-09-15 22:50:00,53.2,45.0,29.61,NNW,338,0.0,6.0,74,0.00,,,0.00,weatherlink.com 1.10,2013-09-16 05:50:00,
2013-09-15 23:05:00,52.7,45.0,29.62,North,8,0.0,2.0,74,0.00,,,0.00,weatherlink.com 1.10,2013-09-16 06:05:00,
2013-09-15 23:20:00,52.6,45.0,29.62,NNE,14,1.0,4.0,75,0.00,,,0.00,weatherlink.com 1.10,2013-09-16 06:20:00,
2013-09-15 23:35:00,52.0,45.0,29.63,NNW,338,2.0,2.0,76,0.00,,,0.00,weatherlink.com 1.10,2013-09-16 06:35:00,
2013-09-15 23:50:00,51.8,44.0,29.64,NNW,342,0.0,0.0,76,0.00,,,0.00,weatherlink.com 1.10,2013-09-16 06:50:00,